Location: ????????
(56.1167°N, 38.6333°E)
Time: 10:25:37
(UTC+00:00)

Cosmos 1346 Rocket - Pass Details

Date: 23 February 2026
Orbit: 476 x 485 km, 81.2° (Epoch: 11 March)

Event Time Altitude Azimuth Distance (km) Brightness Sun altitude
Rises 02:28:23 0° 340° (NNW) 2,571 6.1 -18.0°
Reaches altitude 10° 02:30:34 10° 334° (NNW) 1,686 5.1 -17.7°
Enters shadow 02:31:02 13° 331° (NNW) 1,510 4.8 -17.6°
Exits shadow 02:35:36 26° 212° (SSW) 993 3.8 -17.0°
Drops below altitude 10° 02:37:31 10° 193° (SSW) 1,674 5.1 -16.7°
Sets 02:39:41 0° 186° (S) 2,550 6.1 -16.4°
